"read_dt","SO2 (ppb)","flags","PMT voltage (V)","lamp voltage (V)","lamp intensity (Hz)","internal temp (C)","react chamber temp (C)","sample flow (l/min)","pres (mmHg)","SO2 bkg (ppb)","SO2 coefficient"
2014-03-03 00:00:00,5856E-2,5C000490,-0724,1376,5187,026.8,045.3,0.113,770.3,01.15,0.508
2014-03-03 00:01:00,5827E-2,5C000490,-0724,1376,5272,026.8,045.3,0.113,770.3,01.15,0.508
2014-03-03 00:02:00,5902E-2,5C000490,-0724,1376,5266,026.8,045.3,0.113,770.3,01.15,0.508
2014-03-03 00:03:00,5884E-2,5C000490,-0724,1376,5295,026.8,045.3,0.113,770.3,01.15,0.508
2014-03-03 00:04:00,5879E-2,5C000490,-0724,1376,5204,026.8,045.3,0.113,770.3,01.15,0.508
2014-03-03 00:05:00,5860E-2,5C000490,-0724,1376,5201,026.9,045.3,0.113,770.3,01.15,0.508
2014-03-03 00:06:00,5869E-2,5C000490,-0724,1376,5225,026.8,045.3,0.113,770.3,01.15,0.508
2014-03-03 00:07:00,5785E-2,5C000490,-0724,1376,5054,026.9,045.3,0.113,770.4,01.15,0.508
2014-03-03 00:08:00,5760E-2,5C000490,-0724,1376,5180,026.9,045.3,0.113,770.3,01.15,0.508
2014-03-03 00:09:00,5810E-2,5C000490,-0724,1376,5214,026.8,045.3,0.113,770.3,01.15,0.508
2014-03-03 00:10:00,5827E-2,5C000490,-0724,1376,5234,026.9,045.3,0.113,770.3,01.15,0.508
2014-03-03 00:11:00,5744E-2,5C000490,-0724,1376,5234,026.9,045.3,0.113,770.4,01.15,0.508
2014-03-03 00:12:00,5808E-2,5C000490,-0724,1376,5140,026.8,045.3,0.113,770.4,01.15,0.508
2014-03-03 00:13:00,5804E-2,5C000490,-0724,1376,5153,026.8,045.3,0.113,770.3,01.15,0.508
2014-03-03 00:14:00,5761E-2,5C000490,-0724,1376,5166,026.9,045.3,0.113,770.3,01.15,0.508
2014-03-03 00:15:00,5776E-2,5C000490,-0724,1376,5187,026.8,045.3,0.113,770.3,01.15,0.508
2014-03-03 00:16:00,5792E-2,5C000490,-0724,1376,5205,026.9,045.3,0.113,770.3,01.15,0.508
2014-03-03 00:17:00,5821E-2,5C000490,-0724,1376,5182,026.8,045.3,0.113,770.3,01.15,0.508
2014-03-03 00:18:00,5761E-2,5C000490,-0724,1376,5244,026.9,045.3,0.113,770.3,01.15,0.508
2014-03-03 00:19:00,5816E-2,5C000490,-0724,1376,5171,026.9,045.3,0.113,770.3,01.15,0.508
2014-03-03 00:20:00,5784E-2,5C000490,-0724,1376,5180,026.8,045.3,0.113,770.3,01.15,0.508
2014-03-03 00:21:00,5795E-2,5C000490,-0724,1376,5153,026.8,045.3,0.113,770.3,01.15,0.508
2014-03-03 00:22:00,5832E-2,5C000490,-0724,1376,5164,026.8,045.3,0.113,770.3,01.15,0.508
2014-03-03 00:23:00,5802E-2,5C000490,-0724,1376,5229,026.8,045.3,0.113,770.3,01.15,0.508
2014-03-03 00:24:00,5718E-2,5C000490,-0724,1376,5229,026.8,045.3,0.113,770.3,01.15,0.508
2014-03-03 00:25:00,5839E-2,5C000490,-0724,1376,5151,026.8,045.3,0.113,770.3,01.15,0.508
2014-03-03 00:26:00,5769E-2,5C000490,-0724,1376,5194,026.8,045.3,0.113,770.4,01.15,0.508
2014-03-03 00:27:00,5802E-2,5C000490,-0724,1376,5179,026.8,045.3,0.113,770.4,01.15,0.508
2014-03-03 00:28:00,5835E-2,5C000490,-0724,1376,5182,026.8,045.3,0.113,770.4,01.15,0.508
2014-03-03 00:29:00,5732E-2,5C000490,-0724,1376,5126,026.8,045.3,0.113,770.3,01.15,0.508
2014-03-03 00:30:00,5706E-2,5C000490,-0724,1376,5193,026.8,045.3,0.113,770.4,01.15,0.508
2014-03-03 00:31:00,5689E-2,5C000490,-0724,1376,5111,026.8,045.3,0.113,770.4,01.15,0.508
2014-03-03 00:32:00,5687E-2,5C000490,-0724,1376,5138,026.8,045.3,0.113,770.4,01.15,0.508
2014-03-03 00:33:00,5727E-2,5C000490,-0724,1376,5182,026.8,045.3,0.113,770.4,01.15,0.508
2014-03-03 00:34:00,5679E-2,5C000490,-0724,1376,5119,026.8,045.3,0.113,770.4,01.15,0.508
2014-03-03 00:35:00,5737E-2,5C000490,-0724,1376,5169,026.8,045.3,0.113,770.4,01.15,0.508
2014-03-03 00:36:00,5681E-2,5C000490,-0724,1376,5149,026.9,045.3,0.113,770.4,01.15,0.508
2014-03-03 00:37:00,5633E-2,5C000490,-0724,1376,5079,026.8,045.3,0.113,770.4,01.15,0.508
2014-03-03 00:38:00,5687E-2,5C000490,-0724,1376,5111,026.8,045.3,0.114,770.4,01.15,0.508
2014-03-03 00:39:00,5630E-2,5C000490,-0724,1376,5139,026.8,045.3,0.113,770.4,01.15,0.508
2014-03-03 00:40:00,5672E-2,5C000490,-0724,1376,5107,026.9,045.3,0.113,770.4,01.15,0.508
2014-03-03 00:41:00,5705E-2,5C000490,-0724,1376,5170,026.9,045.3,0.114,770.4,01.15,0.508
2014-03-03 00:42:00,5737E-2,5C000490,-0724,1376,5150,026.9,045.3,0.113,770.4,01.15,0.508
2014-03-03 00:43:00,5669E-2,5C000490,-0724,1376,5155,026.9,045.3,0.113,770.4,01.15,0.508
2014-03-03 00:44:00,5724E-2,5C000490,-0724,1376,5181,026.9,045.3,0.113,770.4,01.15,0.508
2014-03-03 00:45:00,5828E-2,5C000490,-0724,1376,5222,026.9,045.3,0.113,770.4,01.15,0.508
2014-03-03 00:46:00,5713E-2,5C000490,-0724,1376,5259,026.9,045.3,0.113,770.4,01.15,0.508
2014-03-03 00:47:00,5876E-2,5C000490,-0724,1376,5430,026.9,045.3,0.113,770.4,01.15,0.508
2014-03-03 00:48:00,5827E-2,5C000490,-0724,1376,5386,026.9,045.3,0.113,770.4,01.15,0.508
2014-03-03 00:49:00,5855E-2,5C000490,-0724,1376,5358,026.9,045.3,0.113,770.4,01.15,0.508
2014-03-03 00:50:00,5798E-2,5C000490,-0724,1376,5389,026.9,045.3,0.113,770.4,01.15,0.508
2014-03-03 00:51:00,5929E-2,5C000490,-0724,1376,6310,026.9,045.3,0.113,770.4,01.15,0.508
2014-03-03 00:52:00,6032E-2,5C000490,-0724,1376,6285,026.9,045.3,0.113,770.4,01.15,0.508
2014-03-03 00:53:00,6051E-2,5C000490,-0724,1376,6321,026.9,045.3,0.113,770.4,01.15,0.508
2014-03-03 00:54:00,5976E-2,5C000490,-0724,1376,6256,026.9,045.3,0.113,770.4,01.15,0.508
2014-03-03 00:55:00,6018E-2,5C000490,-0724,1376,6244,026.9,045.3,0.113,770.3,01.15,0.508
2014-03-03 00:56:00,5970E-2,5C000490,-0724,1376,6165,026.9,045.3,0.113,770.3,01.15,0.508
2014-03-03 00:57:00,6048E-2,5C000490,-0724,1376,6196,026.9,045.3,0.113,770.4,01.15,0.508
2014-03-03 00:58:00,6058E-2,5C000490,-0724,1376,6139,026.9,045.3,0.113,770.4,01.15,0.508
2014-03-03 00:59:00,6044E-2,5C000490,-0724,1376,6081,026.9,045.3,0.113,770.4,01.15,0.508
2014-03-03 01:00:00,6027E-2,5C000490,-0724,1376,6092,026.9,045.3,0.113,770.4,01.15,0.508
2014-03-03 01:01:00,6040E-2,5C000490,-0724,1376,6056,026.9,045.3,0.113,770.4,01.15,0.508
2014-03-03 01:02:00,5974E-2,5C000490,-0724,1376,6099,026.9,045.3,0.113,770.4,01.15,0.508
2014-03-03 01:03:00,6043E-2,5C000490,-0724,1376,6021,026.9,045.3,0.113,770.4,01.15,0.508
2014-03-03 01:04:00,5992E-2,5C000490,-0724,1376,5996,026.9,045.3,0.113,770.4,01.15,0.508
2014-03-03 01:05:00,6053E-2,5C000490,-0724,1376,6017,026.9,045.3,0.113,770.4,01.15,0.508
2014-03-03 01:06:00,5972E-2,5C000490,-0724,1376,5991,026.9,045.3,0.113,770.4,01.15,0.508
2014-03-03 01:07:00,6032E-2,5C000490,-0724,1376,5966,027.0,045.3,0.113,770.4,01.15,0.508
2014-03-03 01:08:00,5921E-2,5C000490,-0724,1376,5923,026.9,045.3,0.113,770.4,01.15,0.508
2014-03-03 01:09:00,5996E-2,5C000490,-0724,1376,5970,026.9,045.3,0.113,770.4,01.15,0.508
2014-03-03 01:10:00,5962E-2,5C000490,-0724,1376,5939,027.0,045.3,0.113,770.4,01.15,0.508
2014-03-03 01:11:00,5948E-2,5C000490,-0724,1376,5936,027.0,045.3,0.113,770.5,01.15,0.508
2014-03-03 01:12:00,5976E-2,5C000490,-0724,1376,5904,027.0,045.3,0.113,770.5,01.15,0.508
2014-03-03 01:13:00,5916E-2,5C000490,-0724,1376,5851,027.0,045.3,0.113,770.4,01.15,0.508
2014-03-03 01:14:00,5970E-2,5C000490,-0724,1376,5837,027.0,045.3,0.113,770.4,01.15,0.508
2014-03-03 01:15:00,5949E-2,5C000490,-0724,1376,5890,027.0,045.3,0.113,770.4,01.15,0.508
2014-03-03 01:16:00,6028E-2,5C000490,-0724,1376,5843,027.0,045.3,0.113,770.5,01.15,0.508
2014-03-03 01:17:00,5955E-2,5C000490,-0724,1376,5832,027.0,045.3,0.113,770.5,01.15,0.508
2014-03-03 01:18:00,6011E-2,5C000490,-0724,1376,5808,027.0,045.3,0.113,770.4,01.15,0.508
2014-03-03 01:19:00,5956E-2,5C000490,-0724,1376,5787,027.0,045.3,0.113,770.5,01.15,0.508
2014-03-03 01:20:00,5975E-2,5C000490,-0724,1376,5827,027.0,045.3,0.113,770.5,01.15,0.508
2014-03-03 01:21:00,5956E-2,5C000490,-0724,1376,5784,027.0,045.3,0.113,770.5,01.15,0.508
2014-03-03 01:22:00,5950E-2,5C000490,-0724,1376,5798,027.0,045.3,0.113,770.5,01.15,0.508
2014-03-03 01:23:00,6000E-2,5C000490,-0724,1376,5818,027.0,045.3,0.113,770.4,01.15,0.508
2014-03-03 01:24:00,5928E-2,5C000490,-0724,1376,5746,027.0,045.3,0.113,770.5,01.15,0.508
2014-03-03 01:25:00,6011E-2,5C000490,-0724,1376,5786,027.0,045.3,0.113,770.5,01.15,0.508
2014-03-03 01:26:00,5910E-2,5C000490,-0724,1376,5756,027.0,045.3,0.113,770.5,01.15,0.508
2014-03-03 01:27:00,5946E-2,5C000490,-0724,1376,5786,027.0,045.3,0.113,770.4,01.15,0.508
2014-03-03 01:28:00,5884E-2,5C000490,-0724,1376,5771,027.0,045.3,0.113,770.4,01.15,0.508
2014-03-03 01:29:00,5962E-2,5C000490,-0724,1376,5728,027.0,045.3,0.113,770.4,01.15,0.508
2014-03-03 01:30:00,6671E-2,5C000490,-0724,1204,9390,027.0,045.3,0.113,770.4,01.15,0.508
2014-03-03 01:31:00,6762E-2,5C000410,-0724,1156,8982,027.0,045.3,0.113,770.5,01.15,0.508
2014-03-03 01:32:00,6672E-2,5C000410,-0724,1157,8932,027.0,045.3,0.113,770.5,01.15,0.508
2014-03-03 01:33:00,6714E-2,5C000410,-0724,1160,8819,027.0,045.3,0.113,770.4,01.15,0.508
2014-03-03 01:34:00,6670E-2,5C000410,-0724,1163,8906,027.0,045.3,0.113,770.4,01.15,0.508
2014-03-03 01:35:00,6708E-2,5C000410,-0724,1164,8885,027.0,045.3,0.113,770.5,01.15,0.508
2014-03-03 01:36:00,6717E-2,5C000410,-0724,1168,8785,027.0,045.3,0.113,770.5,01.15,0.508
2014-03-03 01:37:00,6758E-2,5C000410,-0724,1170,8837,027.0,045.3,0.113,770.5,01.15,0.508
2014-03-03 01:38:00,6731E-2,5C000410,-0724,1173,8737,027.0,045.3,0.113,770.5,01.15,0.508
2014-03-03 01:39:00,6770E-2,5C000410,-0724,1176,8817,027.0,045.3,0.113,770.5,01.15,0.508
2014-03-03 01:40:00,6835E-2,5C000410,-0724,1178,8639,027.0,045.3,0.113,770.5,01.15,0.508
2014-03-03 01:41:00,6785E-2,5C000410,-0724,1180,8694,027.0,045.3,0.113,770.5,01.15,0.508
2014-03-03 01:42:00,6862E-2,5C000410,-0724,1182,8792,027.0,045.3,0.113,770.5,01.15,0.508
2014-03-03 01:43:00,6846E-2,5C000410,-0724,1183,8687,027.0,045.3,0.113,770.5,01.15,0.508
2014-03-03 01:44:00,6912E-2,5C000410,-0724,1185,8727,027.0,045.3,0.113,770.4,01.15,0.508
2014-03-03 01:45:00,6891E-2,5C000410,-0724,1187,8622,027.0,045.3,0.113,770.4,01.15,0.508
2014-03-03 01:46:00,6987E-2,5C000410,-0724,1188,8619,027.0,045.3,0.113,770.4,01.15,0.508
2014-03-03 01:47:00,6925E-2,5C000410,-0724,1188,8673,027.0,045.3,0.113,770.4,01.15,0.508
2014-03-03 01:48:00,6952E-2,5C000410,-0724,1191,8627,027.0,045.3,0.113,770.5,01.15,0.508
2014-03-03 01:49:00,7025E-2,5C000410,-0724,1192,8577,027.0,045.3,0.113,770.4,01.15,0.508
2014-03-03 01:50:00,7022E-2,5C000410,-0724,1193,8573,027.0,045.3,0.113,770.4,01.15,0.508
2014-03-03 01:51:00,7037E-2,5C000410,-0724,1196,8684,027.0,045.3,0.113,770.5,01.15,0.508
2014-03-03 01:52:00,6982E-2,5C000410,-0724,1198,8558,027.0,045.3,0.113,770.5,01.15,0.508
2014-03-03 01:53:00,7010E-2,5C000410,-0724,1198,8617,027.0,045.3,0.113,770.5,01.15,0.508
2014-03-03 01:54:00,7033E-2,5C000490,-0724,1201,8551,027.0,045.3,0.113,770.4,01.15,0.508
2014-03-03 01:55:00,6994E-2,5C000490,-0724,1201,8617,027.0,045.3,0.113,770.4,01.15,0.508
2014-03-03 01:56:00,7122E-2,5C000490,-0724,1201,8472,027.0,045.3,0.113,770.5,01.15,0.508
2014-03-03 01:57:00,7082E-2,5C000490,-0724,1204,8517,027.0,045.3,0.113,770.5,01.15,0.508
2014-03-03 01:58:00,7101E-2,5C000490,-0724,1206,8444,027.0,045.3,0.113,770.5,01.15,0.508
2014-03-03 01:59:00,7096E-2,5C000490,-0724,1208,8377,027.1,045.3,0.113,770.6,01.15,0.508
2014-03-03 02:00:00,7125E-2,5C000490,-0724,1210,8429,027.0,045.3,0.113,770.5,01.15,0.508
2014-03-03 02:01:00,7131E-2,5C000490,-0724,1211,8420,027.0,045.3,0.113,770.4,01.15,0.508
2014-03-03 02:02:00,7111E-2,5C000490,-0724,1212,8491,027.0,045.3,0.113,770.5,01.15,0.508
2014-03-03 02:03:00,7101E-2,5C000490,-0724,1213,8462,027.1,045.3,0.113,770.5,01.15,0.508
2014-03-03 02:04:00,7126E-2,5C000490,-0724,1215,8289,027.1,045.3,0.113,770.5,01.15,0.508
2014-03-03 02:05:00,7144E-2,5C000490,-0724,1216,8422,027.0,045.3,0.113,770.4,01.15,0.508
2014-03-03 02:06:00,7110E-2,5C000490,-0724,1216,8385,027.1,045.3,0.113,770.4,01.15,0.508
2014-03-03 02:07:00,7142E-2,5C000490,-0724,1217,8404,027.1,045.3,0.113,770.4,01.15,0.508
2014-03-03 02:08:00,7187E-2,5C000490,-0724,1218,8441,027.0,045.3,0.113,770.4,01.15,0.508
2014-03-03 02:09:00,7114E-2,5C000490,-0724,1221,8261,027.1,045.3,0.113,770.5,01.15,0.508
2014-03-03 02:10:00,7120E-2,5C000490,-0724,1223,8288,027.1,045.3,0.113,770.4,01.15,0.508
2014-03-03 02:11:00,7112E-2,5C000490,-0724,1226,8279,027.1,045.3,0.113,770.4,01.15,0.508
2014-03-03 02:12:00,7208E-2,5C000490,-0724,1232,8218,027.1,045.3,0.113,770.4,01.15,0.508
2014-03-03 02:13:00,7195E-2,5C000490,-0724,1234,8207,027.1,045.3,0.113,770.4,01.15,0.508
2014-03-03 02:14:00,7218E-2,5C000490,-0724,1238,8075,027.1,045.3,0.113,770.3,01.15,0.508
2014-03-03 02:15:00,7261E-2,5C000490,-0724,1242,8161,027.1,045.3,0.113,770.3,01.15,0.508
2014-03-03 02:16:00,7331E-2,5C000490,-0724,1245,8047,027.1,045.3,0.113,770.3,01.15,0.508
2014-03-03 02:17:00,7269E-2,5C000490,-0724,1248,8120,027.0,045.3,0.112,770.3,01.15,0.508
2014-03-03 02:18:00,7261E-2,5C000490,-0724,1251,7993,027.0,045.3,0.113,770.2,01.15,0.508
2014-03-03 02:19:00,7282E-2,5C000490,-0724,1254,7990,027.1,045.3,0.113,770.2,01.15,0.508
2014-03-03 02:20:00,7303E-2,5C000490,-0724,1257,8031,027.1,045.3,0.113,770.2,01.15,0.508
2014-03-03 02:21:00,7150E-2,5C000490,-0724,1260,7971,027.1,045.3,0.113,770.3,01.15,0.508
2014-03-03 02:22:00,7228E-2,5C000490,-0724,1261,7954,027.1,045.3,0.112,770.3,01.15,0.508
2014-03-03 02:23:00,7176E-2,5C000490,-0724,1264,7852,027.1,045.3,0.112,770.3,01.15,0.508
2014-03-03 02:24:00,7222E-2,5C000490,-0724,1265,7921,027.1,045.3,0.112,770.2,01.15,0.508
2014-03-03 02:25:00,7263E-2,5C000490,-0724,1269,7818,027.1,045.3,0.113,770.3,01.15,0.508
2014-03-03 02:26:00,7271E-2,5C000490,-0724,1270,7804,027.1,045.3,0.113,770.3,01.15,0.508
2014-03-03 02:27:00,7249E-2,5C000490,-0724,1273,7873,027.1,045.3,0.113,770.3,01.15,0.508
2014-03-03 02:28:00,7263E-2,5C000490,-0724,1273,7733,027.1,045.3,0.113,770.2,01.15,0.508
2014-03-03 02:29:00,7330E-2,5C000490,-0724,1274,7799,027.1,045.3,0.112,770.3,01.15,0.508
2014-03-03 02:30:00,7274E-2,5C000490,-0724,1277,7825,027.1,045.3,0.113,770.4,01.15,0.508
2014-03-03 02:31:00,7280E-2,5C000490,-0724,1278,7855,027.1,045.3,0.113,770.3,01.15,0.508
2014-03-03 02:32:00,7230E-2,5C000490,-0724,1280,7732,027.1,045.3,0.112,770.3,01.15,0.508
2014-03-03 02:33:00,7218E-2,5C000490,-0724,1279,7744,027.1,045.3,0.113,770.4,01.15,0.508
2014-03-03 02:34:00,7140E-2,5C000490,-0724,1281,7744,027.1,045.3,0.112,770.4,01.15,0.508
2014-03-03 02:35:00,7230E-2,5C000490,-0724,1283,7694,027.0,045.3,0.113,770.3,01.15,0.508
2014-03-03 02:36:00,7237E-2,5C000490,-0724,1285,7701,027.0,045.3,0.112,770.3,01.15,0.508
2014-03-03 02:37:00,7205E-2,5C000490,-0724,1287,7668,027.0,045.3,0.112,770.4,01.15,0.508
2014-03-03 02:38:00,7242E-2,5C000490,-0724,1286,7736,027.0,045.3,0.113,770.4,01.15,0.508
2014-03-03 02:39:00,7365E-2,5C000490,-0724,1288,7625,027.0,045.3,0.113,770.4,01.15,0.508
2014-03-03 02:40:00,7241E-2,5C000490,-0724,1289,7614,027.0,045.3,0.113,770.3,01.15,0.508
2014-03-03 02:41:00,7174E-2,5C000490,-0724,1290,7643,027.0,045.3,0.113,770.4,01.15,0.508
2014-03-03 02:42:00,7214E-2,5C000490,-0724,1291,7624,027.0,045.3,0.113,770.4,01.15,0.508
2014-03-03 02:43:00,7272E-2,5C000490,-0724,1293,7683,027.0,045.3,0.113,770.4,01.15,0.508
2014-03-03 02:44:00,7235E-2,5C000490,-0724,1294,7546,027.0,045.3,0.113,770.4,01.15,0.508
2014-03-03 02:45:00,7217E-2,5C000490,-0724,1295,7608,027.0,045.3,0.113,770.4,01.15,0.508
2014-03-03 02:46:00,7194E-2,5C000490,-0724,1297,7491,027.0,045.3,0.113,770.4,01.15,0.508
2014-03-03 02:47:00,7323E-2,5C000490,-0724,1296,7681,027.0,045.3,0.113,770.5,01.15,0.508
2014-03-03 02:48:00,7307E-2,5C000490,-0724,1297,7579,027.0,045.3,0.113,770.5,01.15,0.508
2014-03-03 02:49:00,7260E-2,5C000490,-0724,1297,7609,027.0,045.3,0.113,770.5,01.15,0.508
2014-03-03 02:50:00,7290E-2,5C000490,-0724,1300,7565,027.0,045.3,0.113,770.5,01.15,0.508
2014-03-03 02:51:00,7276E-2,5C000490,-0724,1300,7639,027.0,045.3,0.113,770.4,01.15,0.508
2014-03-03 02:52:00,7300E-2,5C000490,-0724,1301,7594,027.0,045.3,0.113,770.5,01.15,0.508
2014-03-03 02:53:00,7301E-2,5C000490,-0724,1302,7551,027.0,045.3,0.113,770.5,01.15,0.508
2014-03-03 02:54:00,7259E-2,5C000490,-0724,1304,7435,027.0,045.3,0.113,770.5,01.15,0.508
2014-03-03 02:55:00,7237E-2,5C000490,-0724,1303,7500,026.9,045.3,0.113,770.5,01.15,0.508
2014-03-03 02:56:00,7261E-2,5C000490,-0724,1304,7486,026.9,045.3,0.113,770.4,01.15,0.508
2014-03-03 02:57:00,7310E-2,5C000490,-0724,1303,7543,026.9,045.2,0.113,770.4,01.15,0.508
2014-03-03 02:58:00,7307E-2,5C000490,-0724,1303,7527,026.9,045.3,0.113,770.5,01.15,0.508
2014-03-03 02:59:00,7195E-2,5C000490,-0724,1304,7409,026.9,045.3,0.113,770.5,01.15,0.508
2014-03-03 03:00:00,7255E-2,5C000490,-0724,1306,7521,026.9,045.3,0.113,770.4,01.15,0.508
2014-03-03 03:01:00,7244E-2,5C000490,-0724,1306,7486,026.9,045.3,0.113,770.5,01.15,0.508
2014-03-03 03:02:00,7259E-2,5C000490,-0724,1306,7491,026.9,045.3,0.113,770.5,01.15,0.508
2014-03-03 03:03:00,7229E-2,5C000490,-0724,1306,7444,026.9,045.3,0.113,770.5,01.15,0.508
2014-03-03 03:04:00,7244E-2,5C000490,-0724,1308,7446,026.8,045.3,0.113,770.4,01.15,0.508
2014-03-03 03:05:00,7272E-2,5C000490,-0724,1309,7501,026.8,045.3,0.113,770.4,01.15,0.508
2014-03-03 03:06:00,7280E-2,5C000490,-0724,1310,7516,026.8,045.3,0.113,770.5,01.15,0.508
2014-03-03 03:07:00,7262E-2,5C000490,-0724,1312,7378,026.8,045.3,0.113,770.4,01.15,0.508
2014-03-03 03:08:00,7312E-2,5C000490,-0724,1313,7428,026.8,045.3,0.113,770.4,01.15,0.508
2014-03-03 03:09:00,7262E-2,5C000490,-0724,1314,7419,026.8,045.3,0.113,770.5,01.15,0.508
2014-03-03 03:10:00,7209E-2,5C000490,-0724,1310,7552,026.8,045.3,0.113,770.5,01.15,0.508
2014-03-03 03:11:00,7291E-2,5C000490,-0724,1305,7558,026.8,045.3,0.113,770.4,01.15,0.508
2014-03-03 03:12:00,7223E-2,5C000490,-0724,1307,7457,026.8,045.2,0.114,770.4,01.15,0.508
2014-03-03 03:13:00,7326E-2,5C000490,-0724,1307,7523,026.8,045.2,0.113,770.4,01.15,0.508
2014-03-03 03:14:00,7175E-2,5C000490,-0724,1308,7491,026.8,045.3,0.113,770.4,01.15,0.508
2014-03-03 03:15:00,7274E-2,5C000490,-0724,1309,7481,026.8,045.3,0.113,770.4,01.15,0.508
2014-03-03 03:16:00,7250E-2,5C000490,-0724,1311,7503,026.8,045.3,0.113,770.4,01.15,0.508
2014-03-03 03:17:00,7206E-2,5C000490,-0724,1312,7330,026.8,045.3,0.114,770.5,01.15,0.508
2014-03-03 03:18:00,7226E-2,5C000490,-0724,1315,7351,026.8,045.3,0.113,770.4,01.15,0.508
2014-03-03 03:19:00,7028E-2,5C000490,-0724,1306,7566,026.8,045.3,0.113,770.4,01.15,0.508
2014-03-03 03:20:00,6915E-2,5C000490,-0724,1300,7551,026.8,045.3,0.113,770.4,01.15,0.508
2014-03-03 03:21:00,6869E-2,5C000490,-0724,1301,7541,026.8,045.3,0.114,770.3,01.15,0.508
2014-03-03 03:22:00,6928E-2,5C000490,-0724,1301,7508,026.8,045.3,0.114,770.4,01.15,0.508
2014-03-03 03:23:00,6921E-2,5C000490,-0724,1301,7432,026.8,045.3,0.113,770.4,01.15,0.508
2014-03-03 03:24:00,6985E-2,5C000490,-0724,1302,7550,026.8,045.2,0.113,770.4,01.15,0.508
2014-03-03 03:25:00,6974E-2,5C000490,-0724,1300,7576,026.8,045.2,0.114,770.4,01.15,0.508
2014-03-03 03:26:00,7002E-2,5C000490,-0724,1301,7592,026.8,045.3,0.114,770.4,01.15,0.508
2014-03-03 03:27:00,6951E-2,5C000490,-0724,1301,7641,026.8,045.2,0.114,770.4,01.15,0.508
2014-03-03 03:28:00,6937E-2,5C000490,-0724,1303,7565,026.8,045.3,0.114,770.4,01.15,0.508
2014-03-03 03:29:00,6988E-2,5C000490,-0724,1304,7585,026.8,045.3,0.114,770.5,01.15,0.508
2014-03-03 03:30:00,7016E-2,5C000490,-0724,1306,7521,026.8,045.3,0.114,770.4,01.15,0.508
2014-03-03 03:31:00,6965E-2,5C000490,-0724,1306,7498,026.8,045.3,0.114,770.3,01.15,0.508
2014-03-03 03:32:00,6890E-2,5C000490,-0724,1301,7567,026.8,045.3,0.114,770.3,01.15,0.508
2014-03-03 03:33:00,6993E-2,5C000490,-0724,1299,7558,026.8,045.2,0.114,770.4,01.15,0.508
2014-03-03 03:34:00,6997E-2,5C000490,-0724,1301,7533,026.8,045.3,0.114,770.4,01.15,0.508
2014-03-03 03:35:00,6975E-2,5C000490,-0724,1302,7585,026.7,045.3,0.114,770.4,01.15,0.508
2014-03-03 03:36:00,6982E-2,5C000490,-0724,1304,7566,026.8,045.3,0.114,770.3,01.15,0.508
2014-03-03 03:37:00,7043E-2,5C000490,-0724,1306,7517,026.8,045.3,0.114,770.4,01.15,0.508
2014-03-03 03:38:00,6982E-2,5C000490,-0724,1308,7489,026.8,045.3,0.114,770.4,01.15,0.508
2014-03-03 03:39:00,7023E-2,5C000490,-0724,1309,7498,026.7,045.3,0.114,770.4,01.15,0.508
2014-03-03 03:40:00,7045E-2,5C000490,-0724,1310,7390,026.8,045.3,0.114,770.4,01.15,0.508
2014-03-03 03:41:00,6987E-2,5C000490,-0724,1311,7370,026.8,045.3,0.114,770.3,01.15,0.508
2014-03-03 03:42:00,7049E-2,5C000490,-0724,1313,7376,026.8,045.3,0.114,770.4,01.15,0.508
2014-03-03 03:43:00,7044E-2,5C000490,-0724,1312,7453,026.8,045.3,0.114,770.4,01.15,0.508
2014-03-03 03:44:00,7049E-2,5C000490,-0724,1311,7449,026.8,045.3,0.114,770.4,01.15,0.508
2014-03-03 03:45:00,6929E-2,5C000490,-0724,1314,7438,026.8,045.3,0.114,770.4,01.15,0.508
2014-03-03 03:46:00,6999E-2,5C000490,-0724,1315,7394,026.8,045.2,0.114,770.3,01.15,0.508
2014-03-03 03:47:00,7061E-2,5C000490,-0724,1317,7447,026.8,045.2,0.114,770.4,01.15,0.508
2014-03-03 03:48:00,7023E-2,5C000490,-0724,1318,7421,026.8,045.3,0.114,770.4,01.15,0.508
2014-03-03 03:49:00,7008E-2,5C000490,-0724,1318,7433,026.7,045.3,0.114,770.4,01.15,0.508
2014-03-03 03:50:00,6968E-2,5C000490,-0724,1319,7417,026.7,045.3,0.114,770.4,01.15,0.508
2014-03-03 03:51:00,7055E-2,5C000490,-0724,1319,7443,026.7,045.2,0.114,770.3,01.15,0.508
2014-03-03 03:52:00,7060E-2,5C000490,-0724,1321,7320,026.7,045.3,0.114,770.4,01.15,0.508
2014-03-03 03:53:00,7011E-2,5C000490,-0724,1324,7238,026.7,045.3,0.114,770.4,01.15,0.508
2014-03-03 03:54:00,6992E-2,5C000490,-0724,1327,7280,026.7,045.3,0.114,770.3,01.15,0.508
2014-03-03 03:55:00,6974E-2,5C000490,-0724,1329,7160,026.7,045.3,0.114,770.4,01.15,0.508
2014-03-03 03:56:00,6910E-2,5C000490,-0724,1330,7267,026.7,045.3,0.114,770.4,01.15,0.508
2014-03-03 03:57:00,7095E-2,5C000490,-0724,1330,7266,026.7,045.3,0.114,770.4,01.15,0.508
2014-03-03 03:58:00,7020E-2,5C000490,-0724,1332,7212,026.7,045.3,0.114,770.4,01.15,0.508
2014-03-03 03:59:00,7013E-2,5C000490,-0724,1333,7137,026.7,045.3,0.114,770.3,01.15,0.508
2014-03-03 04:00:00,7001E-2,5C000490,-0724,1336,7239,026.7,045.2,0.114,770.4,01.15,0.508
2014-03-03 04:01:00,7032E-2,5C000490,-0724,1336,7211,026.7,045.3,0.114,770.4,01.15,0.508
2014-03-03 04:02:00,7055E-2,5C000490,-0724,1336,7222,026.7,045.2,0.114,770.4,01.15,0.508
2014-03-03 04:03:00,6972E-2,5C000490,-0724,1337,7204,026.7,045.3,0.114,770.5,01.15,0.508
2014-03-03 04:04:00,7018E-2,5C000490,-0724,1335,7220,026.7,045.3,0.114,770.5,01.15,0.508
2014-03-03 04:05:00,7042E-2,5C000490,-0724,1334,7247,026.7,045.3,0.114,770.5,01.15,0.508
2014-03-03 04:06:00,6978E-2,5C000490,-0724,1328,7317,026.7,045.2,0.114,770.6,01.15,0.508
2014-03-03 04:07:00,7036E-2,5C000490,-0724,1325,7310,026.8,045.3,0.114,770.7,01.15,0.508
2014-03-03 04:08:00,6949E-2,5C000490,-0724,1324,7335,026.7,045.3,0.114,770.6,01.15,0.508
2014-03-03 04:09:00,7082E-2,5C000490,-0724,1324,7416,026.7,045.2,0.114,770.6,01.15,0.508
2014-03-03 04:10:00,7045E-2,5C000490,-0724,1318,7432,026.7,045.3,0.114,770.7,01.15,0.508
2014-03-03 04:11:00,7019E-2,5C000490,-0724,1315,7434,026.7,045.3,0.114,770.6,01.15,0.508
2014-03-03 04:12:00,7048E-2,5C000490,-0724,1314,7382,026.7,045.3,0.114,770.7,01.15,0.508
2014-03-03 04:13:00,6977E-2,5C000490,-0724,1314,7461,026.7,045.3,0.114,770.7,01.15,0.508
2014-03-03 04:14:00,7044E-2,5C000490,-0724,1314,7453,026.7,045.3,0.114,770.7,01.15,0.508
2014-03-03 04:15:00,7049E-2,5C000490,-0724,1315,7436,026.7,045.3,0.114,770.7,01.15,0.508
2014-03-03 04:16:00,7085E-2,5C000490,-0724,1316,7369,026.7,045.3,0.114,770.6,01.15,0.508
2014-03-03 04:17:00,7044E-2,5C000490,-0724,1316,7448,026.7,045.3,0.114,770.6,01.15,0.508
2014-03-03 04:18:00,7057E-2,5C000490,-0724,1315,7472,026.7,045.3,0.114,770.6,01.15,0.508
2014-03-03 04:19:00,7061E-2,5C000490,-0724,1314,7402,026.7,045.3,0.114,770.6,01.15,0.508
2014-03-03 04:20:00,7014E-2,5C000490,-0724,1312,7373,026.7,045.2,0.114,770.5,01.15,0.508
2014-03-03 04:21:00,6981E-2,5C000490,-0724,1313,7481,026.7,045.3,0.114,770.6,01.15,0.508
2014-03-03 04:22:00,7028E-2,5C000490,-0724,1313,7455,026.7,045.3,0.114,770.6,01.15,0.508
2014-03-03 04:23:00,7071E-2,5C000490,-0724,1313,7464,026.7,045.2,0.114,770.6,01.15,0.508